Location: Unspecified
(41.9031°N, 12.4386°E)
Time: 04:41:13
(UTC+01:00)

ISS - Pass Details

Date: 24 February 2020
Orbit: 415 x 423 km, 51.6° (Epoch: 27 February)

Event Time Altitude Azimuth Distance (km) Brightness Sun altitude
Exits shadow 05:09:44 34° 175° (S) 710 -2.7 -20.2°
Maximum altitude 05:10:32 41° 138° (SE) 623 -2.7 -20.0°
Drops below altitude 10° 05:13:44 10° 67° (ENE) 1,504 0.1 -19.4°
Sets 05:15:54 0° 60° (ENE) 2,373 1.2 -19.0°
